Regional Weather Roundup
Issued by NWS Little Rock, AR

Home | Current Version | Previous Version | Text Only | Print | Product List | Glossary On
Versions: 1 2 3 4 5 6 7 8 9 10 11 12 13 14 15 16 17 18 19 20 21 22 23 24 25 26 27 28 29 30 31 32 33 34 35 36 37 38 39 40 41 42 43 44 45 46 47 48 49
000
ASUS44 KLZK 230105
RWRLZK

WEATHER ROUNDUP FOR ARKANSAS
NATIONAL WEATHER SERVICE LITTLE ROCK AR
700 PM CST MON DEC 22 2014

NOTE: "FAIR" INDICATES FEW OR NO CLOUDS BELOW 12,000 FEET WITH NO
SIGNIFICANT WEATHER AND/OR OBSTRUCTIONS TO VISIBILITY.

ARZ001-003-010-029-230200-
NORTHWEST ARKANSAS

CITY           SKY/WX    TMP DP  RH WIND       PRES   REMARKS
FAYETTEVILLE   CLOUDY    48  46  93 W12       29.61S
FORT SMITH     MOCLDY    51  47  86 SW5       29.62R
HARRISON       CLOUDY    49  46  90 W9G20     29.58R
BENTONVILLE    CLOUDY    48  45  87 W9        29.61S
ROGERS         CLOUDY    48  46  93 W12       29.60R
SILOAM SPGS    MOCLDY    46  41  81 W8        29.62F
HIGHFILL       MOCLDY    48  46  93 W10       29.59F
$$

ARZ004-005-016-230200-
NORTH CENTRAL ARKANSAS

CITY           SKY/WX    TMP DP  RH WIND       PRES   REMARKS
BATESVILLE     CLOUDY    54  52  94 SW6       29.59R
FLIPPIN        CLOUDY    50  46  87 SW5       29.58R
MTN HOME       CLOUDY    49  49 100 SW5       29.57R
$$

ARZ040-041-230200-
WEST CENTRAL ARKANSAS

CITY           SKY/WX    TMP DP  RH WIND       PRES   REMARKS
MENA           CLOUDY    55  52  88 NW6       29.63R
MOUNT IDA      CLOUDY    53  51  93 CALM      29.59R FOG
$$

ARZ009-017-025-026-028-230200-
NORTHEAST ARKANSAS

CITY           SKY/WX    TMP DP  RH WIND       PRES   REMARKS
CORNING        MOCLDY    54  54 100 S12       29.59S FOG
JONESBORO      CLOUDY    54  54 100 S7        29.59F
NEWPORT        PTCLDY    53  53 100 S9        29.60S FOG
WALNUT RIDGE   CLOUDY    52  48  87 S8        29.59R
BLYTHEVILLE    LGT RAIN  54  53  97 S10       29.62S FOG
$$

ARZ022-023-033-042-044-230200-
CENTRAL ARKANSAS

CITY           SKY/WX    TMP DP  RH WIND       PRES   REMARKS
LITTLE ROCK    MOCLDY    55  52  89 SW3       29.61R
N LITTLE ROCK  PTCLDY    54  54 100 SW6       29.61R
JACKSONVILLE   FOG       48  48  99 W5        29.60R VSB 3/4
SEARCY         CLOUDY    53  52  96 S5        29.61R FOG
HOT SPRINGS    MOCLDY    52  51  97 NW5       29.62R FOG
RUSSELLVILLE   LGT RAIN  53  51  93 NW5       29.61R FOG
CLINTON        CLOUDY    54  54 100 W3        29.62R FOG
$$

ARZ036-230200-
EAST ARKANSAS

CITY           SKY/WX    TMP DP  RH WIND       PRES   REMARKS
WEST MEMPHIS   LGT RAIN  55  55 100 S6        29.62S
$$

ARZ050-053-066-070-073-230200-
SOUTHWEST ARKANSAS

CITY           SKY/WX    TMP DP  RH WIND       PRES   REMARKS
ARKADELPHIA    FAIR      51  51 100 CALM      29.62R FOG
CAMDEN         CLOUDY    54  50  87 CALM      29.61R FOG
TEXARKANA      CLOUDY    57  55  93 S3        29.61R
EL DORADO      FOG       53  52  96 CALM      29.61S VSB 1/2
DE QUEEN       CLOUDY    51  51 100 NW3       29.60R FOG
$$

ARZ056-057-069-230200-
SOUTHEAST ARKANSAS

CITY           SKY/WX    TMP DP  RH WIND       PRES   REMARKS
PINE BLUFF     CLOUDY    55  53  93 SE5       29.61S
STUTTGART      CLOUDY    55  54  94 S10       29.60F
MONTICELLO     CLOUDY    57  56  96 S3        29.63R FOG

$$




USA.gov is the U.S. government's official web portal to all federal, state and local government web resources and services.